Weather Roundup
Issued by NWS

Home | Current Version | Previous Version | Text Only | Print | Product List | Glossary On
Versions: 1 2 3 4 5 6 7 8 9 10 11 12 13 14 15 16 17 18 19 20 21 22 23 24 25 26 27 28 29 30 31 32 33 34 35 36 37 38 39 40 41 42 43 44 45 46 47 48 49 50
000
NZUS93 KARX 230110
HRRWXR

CURRENT HOURLY OBSERVATIONS ACROSS
MUCH OF THE UPPER MISSISSIPPI VALLEY
NATIONAL WEATHER SERVICE LA CROSSE WI
700 PM CST WED NOV 22 2017


...SOUTHEAST MINNESOTA...


CITY           SKY/WX    TMP DP  RH WIND       PRES   REMARKS
ROCHESTER      CLOUDY    30  17  58 S12       30.04F WCI  20
ROCHESTER/MAYO CLOUDY    30  15  52 SE7       30.05S WCI  24
WINONA         CLOUDY    32  18  55 SE6       30.10F WCI  26
AUSTIN         CLOUDY    30  16  55 S12       30.03F WCI  21
ALBERT LEA     CLOUDY    32  14  47 S13       30.02F WCI  22
DODGE CENTER   CLOUDY    30  16  55 S13       30.04S WCI  20
PRESTON        CLOUDY    29  15  54 S10       30.06F WCI  20
OWATONNA       CLOUDY    32  18  55 S8        30.04R WCI  25
FARIBAULT      CLOUDY    32  18  55 SE6       30.04R WCI  26
$$

...ELSEWHERE IN MINNESOTA...


CITY           SKY/WX    TMP DP  RH WIND       PRES   REMARKS
MINNEAPOLIS    CLOUDY    30  16  56 SE10      30.03F WCI  21
INTNL FALLS    CLOUDY    20  14  77 SW5       29.95S WCI  13
DULUTH         FLURRIES  20  17  88 SW7       30.00R WCI  11
RED WING       CLOUDY    30  12  47 S6        30.06F WCI  24
REDWOOD FALLS  CLEAR     32  15  49 S7        29.99R WCI  26
MANKATO        CLOUDY    33  17  51 S8        30.02S WCI  26
WORTHINGTON    CLEAR     32  16  51 SW21G28   29.95R WCI  20
FAIRMONT       CLOUDY    33  17  51 S17       29.99F WCI  22
$$

...SOUTHWEST WISCONSIN...


CITY           SKY/WX    TMP DP  RH WIND       PRES   REMARKS
LA CROSSE      CLOUDY    32  17  54 S8        30.12F WCI  25
PRAIRIE DU CHI CLOUDY    32  14  47 SE5       30.16F WCI  27
BOSCOBEL       CLOUDY    33  15  47 S8        30.17F WCI  26
LONE ROCK      CLOUDY    31  17  56 S5        30.17F WCI  26
PLATTEVILLE    MOCLDY    31  20  63 S7        30.17S WCI  24
FORT MC COY    CLOUDY    29  16  58 S3        30.14S
CAMP DOUGLAS   PTCLDY    29  14  53 S5        30.11F WCI  24
MAUSTON-NEW LI CLOUDY    30  16  55 S6        30.11F WCI  24
VIROQUA        CLOUDY    29  18  63 S7        30.12S WCI  22
WIS DELLS      CLOUDY    29  15  55 S7        30.14F WCI  22
$$

...ELSEWHERE IN WISCONSIN...


CITY           SKY/WX    TMP DP  RH WIND       PRES   REMARKS
MILWAUKEE      CLOUDY    32  17  54 SW8       30.20F WCI  25
MADISON        CLOUDY    31  15  52 S10       30.17F WCI  22
GREEN BAY      CLOUDY    29  18  63 SW8       30.15F WCI  21
EAU CLAIRE     CLOUDY    26  14  60 S8        30.08F WCI  18
BLACK RVR FLS  CLOUDY    28  13  53 CALM      30.11F
MEDFORD        LGT SNOW  22  15  75 S9        30.05F WCI  12
WAUSAU         CLOUDY    25  13  60 SW9       30.07F WCI  15
WIS RAPIDS     CLOUDY    28  14  55 SW7       30.12F WCI  21
MARSHFIELD     CLOUDY    25  12  58 S7        30.08F WCI  17
RICE LAKE      MOCLDY    24  19  82 SE8       30.06F WCI  14
$$

...NORTHEAST IOWA...


CITY           SKY/WX    TMP DP  RH WIND       PRES   REMARKS
WATERLOO       CLOUDY    32  14  47 S10       30.12F WCI  24
DUBUQUE        CLOUDY    30  17  58 SW10      30.18S WCI  21
DECORAH        CLOUDY    30  18  59 S8        30.08F WCI  23
MASON CITY     CLOUDY    31  16  54 S10       30.06F WCI  22
CHARLES CITY   CLOUDY    32  14  47 S15       30.07F WCI  22
OELWEIN        CLOUDY    32  18  55 S10       30.12F WCI  24
$$

...ELSEWHERE IN IOWA...


CITY           SKY/WX    TMP DP  RH WIND       PRES   REMARKS
DES MOINES     MOCLDY    35  15  44 S9        30.14F WCI  28
IOWA CITY      MOCLDY    34  18  52 S7        30.21F WCI  28
FORT DODGE     PTCLDY    33  16  49 S15       30.05F WCI  23
MARSHALLTOWN   CLOUDY    33  16  49 S10       30.10F WCI  25
CEDAR RAPIDS   CLOUDY    32  16  51 S6        30.16F WCI  26
$$

...NORTHERN ILLINOIS...


CITY           SKY/WX    TMP DP  RH WIND       PRES   REMARKS
CHICAGO-OHARE  CLOUDY    32  17  54 SW7       30.24F WCI  26
CHICAGO-MIDWAY CLOUDY    32  18  56 W7        30.25F WCI  26
MOLINE         PTCLDY    33  17  51 S8        30.20F WCI  26
ROCKFORD       CLOUDY    31  18  58 S6        30.24F WCI  25
PEORIA         CLOUDY    32  20  61 S6        30.25F WCI  26
$$

NOTE: "FAIR" INDICATES FEW OR NO CLOUDS BELOW 12,000 FEET WITH NO
SIGNIFICANT WEATHER AND/OR OBSTRUCTIONS TO VISIBILITY. WIND
SPEEDS ARE IN MILES-PER-HOUR.




USA.gov is the U.S. government's official web portal to all federal, state and local government web resources and services.